Time,TemperatureF,DewpointF,PressureIn,WindDirection,WindDirectionDegrees,WindSpeedMPH,WindSpeedGustMPH,Humidity,HourlyPrecipIn,Conditions,Clouds,dailyrainin,SoftwareType,DateUTC
2013-03-13 00:02:00,35.0,30.0,-100.00,WSW,240,34.0,44.0,81,0.00,,,-99.99,,2013-03-13 06:02:00,
2013-03-13 00:12:00,35.0,30.0,-100.00,WSW,250,30.0,44.0,82,0.00,,,-99.99,,2013-03-13 06:12:00,
2013-03-13 00:22:00,35.0,30.0,-100.00,WSW,245,31.0,45.0,82,0.00,,,-99.99,,2013-03-13 06:22:00,
2013-03-13 00:32:00,35.0,30.0,-100.00,WSW,245,38.0,49.0,82,0.00,,,-99.99,,2013-03-13 06:32:00,
2013-03-13 00:42:00,35.0,30.0,-100.00,WSW,250,32.0,47.0,81,0.00,,,-99.99,,2013-03-13 06:42:00,
2013-03-13 00:52:00,35.0,30.0,-100.00,WSW,240,38.0,47.0,82,0.00,,,-99.99,,2013-03-13 06:52:00,
2013-03-13 01:02:00,35.0,30.0,-100.00,WSW,240,38.0,48.0,82,0.00,,,-99.99,,2013-03-13 07:02:00,
2013-03-13 01:12:00,35.0,30.0,-100.00,WSW,250,40.0,51.0,83,0.00,,,-99.99,,2013-03-13 07:12:00,
2013-03-13 01:22:00,35.0,30.0,-100.00,WSW,245,41.0,51.0,83,0.00,,,-99.99,,2013-03-13 07:22:00,
2013-03-13 01:32:00,34.0,30.0,-100.00,WSW,245,37.0,47.0,83,0.00,,,-99.99,,2013-03-13 07:32:00,
2013-03-13 01:42:00,34.0,30.0,-100.00,WSW,245,40.0,49.0,85,0.00,,,-99.99,,2013-03-13 07:42:00,
2013-03-13 01:52:00,34.0,31.0,-100.00,WSW,240,43.0,50.0,86,0.00,,,-99.99,,2013-03-13 07:52:00,
2013-03-13 02:03:00,34.0,31.0,-100.00,WSW,245,40.0,52.0,87,0.00,,,-99.99,,2013-03-13 08:03:00,
2013-03-13 02:12:00,34.0,31.0,-100.00,WSW,245,41.0,50.0,87,0.00,,,-99.99,,2013-03-13 08:12:00,
2013-03-13 02:22:00,34.0,31.0,-100.00,WSW,250,37.0,52.0,87,0.00,,,-99.99,,2013-03-13 08:22:00,
2013-03-13 02:32:00,34.0,31.0,-100.00,WSW,245,40.0,47.0,88,0.00,,,-99.99,,2013-03-13 08:32:00,
2013-03-13 02:42:00,33.0,31.0,-100.00,WSW,240,37.0,52.0,89,0.00,,,-99.99,,2013-03-13 08:42:00,
2013-03-13 02:52:00,33.0,31.0,-100.00,WSW,245,36.0,47.0,89,0.00,,,-99.99,,2013-03-13 08:52:00,
2013-03-13 03:02:00,33.0,31.0,-100.00,WSW,245,34.0,49.0,89,0.00,,,-99.99,,2013-03-13 09:02:00,
2013-03-13 03:12:00,33.0,31.0,-100.00,WSW,245,36.0,45.0,90,0.00,,,-99.99,,2013-03-13 09:12:00,
2013-03-13 03:22:00,33.0,31.0,-100.00,WSW,240,34.0,47.0,90,0.00,,,-99.99,,2013-03-13 09:22:00,
2013-03-13 03:32:00,33.0,31.0,-100.00,WSW,250,33.0,47.0,90,0.00,,,-99.99,,2013-03-13 09:32:00,
2013-03-13 03:42:00,33.0,31.0,-100.00,WSW,250,33.0,48.0,90,0.00,,,-99.99,,2013-03-13 09:42:00,
2013-03-13 03:52:00,33.0,31.0,-100.00,WSW,245,32.0,42.0,90,0.00,,,-99.99,,2013-03-13 09:52:00,
2013-03-13 04:02:00,33.0,30.0,-100.00,WSW,245,30.0,40.0,89,0.00,,,-99.99,,2013-03-13 10:02:00,
2013-03-13 04:12:00,33.0,30.0,-100.00,WSW,250,27.0,40.0,89,0.00,,,-99.99,,2013-03-13 10:12:00,
2013-03-13 04:22:00,33.0,30.0,-100.00,WSW,250,37.0,44.0,88,0.00,,,-99.99,,2013-03-13 10:22:00,
2013-03-13 04:32:00,33.0,30.0,-100.00,WSW,240,30.0,43.0,87,0.00,,,-99.99,,2013-03-13 10:32:00,
2013-03-13 04:42:00,33.0,30.0,-100.00,WSW,250,27.0,37.0,87,0.00,,,-99.99,,2013-03-13 10:42:00,
2013-03-13 04:52:00,33.0,30.0,-100.00,SW,235,26.0,38.0,87,0.00,,,-99.99,,2013-03-13 10:52:00,
2013-03-13 05:02:00,33.0,30.0,-100.00,SW,235,26.0,40.0,86,0.00,,,-99.99,,2013-03-13 11:02:00,
2013-03-13 05:12:00,34.0,29.0,-100.00,WSW,240,29.0,37.0,84,0.00,,,-99.99,,2013-03-13 11:12:00,
2013-03-13 05:22:00,33.0,29.0,-100.00,SW,235,29.0,37.0,82,0.00,,,-99.99,,2013-03-13 11:22:00,
2013-03-13 05:32:00,33.0,29.0,-100.00,WSW,240,26.0,30.0,82,0.00,,,-99.99,,2013-03-13 11:32:00,
2013-03-13 05:42:00,34.0,29.0,-100.00,WSW,240,30.0,35.0,82,0.00,,,-99.99,,2013-03-13 11:42:00,
2013-03-13 05:52:00,34.0,29.0,-100.00,SW,230,32.0,42.0,80,0.00,,,-99.99,,2013-03-13 11:52:00,
2013-03-13 06:02:00,34.0,29.0,-100.00,WSW,245,27.0,38.0,81,0.00,,,-99.99,,2013-03-13 12:02:00,
2013-03-13 06:12:00,34.0,29.0,-100.00,SW,235,28.0,37.0,81,0.00,,,-99.99,,2013-03-13 12:12:00,
2013-03-13 06:22:00,34.0,29.0,-100.00,WSW,250,27.0,34.0,81,0.00,,,-99.99,,2013-03-13 12:22:00,
2013-03-13 06:32:00,34.0,29.0,-100.00,WSW,255,27.0,32.0,81,0.00,,,-99.99,,2013-03-13 12:32:00,
2013-03-13 06:42:00,34.0,29.0,-100.00,WSW,250,31.0,37.0,82,0.00,,,-99.99,,2013-03-13 12:42:00,
2013-03-13 06:52:00,34.0,29.0,-100.00,WSW,240,30.0,37.0,82,0.00,,,-99.99,,2013-03-13 12:52:00,
2013-03-13 07:02:00,34.0,29.0,-100.00,SW,235,28.0,39.0,83,0.00,,,-99.99,,2013-03-13 13:02:00,
2013-03-13 07:11:00,34.0,29.0,-100.00,WSW,245,31.0,39.0,83,0.00,,,-99.99,,2013-03-13 13:11:00,
2013-03-13 07:22:00,34.0,30.0,-100.00,SW,235,32.0,42.0,83,0.00,,,-99.99,,2013-03-13 13:22:00,
2013-03-13 07:33:00,34.0,29.0,-100.00,WSW,240,34.0,45.0,82,0.00,,,-99.99,,2013-03-13 13:33:00,
2013-03-13 07:42:00,34.0,30.0,-100.00,WSW,250,30.0,37.0,83,0.00,,,-99.99,,2013-03-13 13:42:00,
2013-03-13 07:52:00,34.0,29.0,-100.00,WSW,250,30.0,37.0,82,0.00,,,-99.99,,2013-03-13 13:52:00,
2013-03-13 08:02:00,34.0,29.0,-100.00,WSW,255,30.0,39.0,82,0.00,,,-99.99,,2013-03-13 14:02:00,
2013-03-13 08:12:00,35.0,29.0,-100.00,West,260,29.0,37.0,81,0.00,,,-99.99,,2013-03-13 14:12:00,
2013-03-13 08:21:00,35.0,29.0,-100.00,WSW,250,31.0,44.0,79,0.00,,,-99.99,,2013-03-13 14:21:00,
2013-03-13 08:33:00,35.0,30.0,-100.00,WSW,250,33.0,39.0,79,0.00,,,-99.99,,2013-03-13 14:33:00,
2013-03-13 08:42:00,36.0,30.0,-100.00,WSW,240,33.0,41.0,78,0.00,,,-99.99,,2013-03-13 14:42:00,
2013-03-13 09:03:00,36.0,30.0,-100.00,SW,235,32.0,46.0,77,0.00,,,-99.99,,2013-03-13 15:03:00,
2013-03-13 09:12:00,36.0,30.0,-100.00,WSW,245,33.0,40.0,77,0.00,,,-99.99,,2013-03-13 15:12:00,
2013-03-13 09:22:00,37.0,30.0,-100.00,WSW,240,35.0,43.0,75,0.00,,,-99.99,,2013-03-13 15:22:00,
2013-03-13 09:32:00,37.0,30.0,-100.00,WSW,240,33.0,42.0,76,0.00,,,-99.99,,2013-03-13 15:32:00,
2013-03-13 09:42:00,37.0,30.0,-100.00,WSW,250,34.0,46.0,75,0.00,,,-99.99,,2013-03-13 15:42:00,
2013-03-13 09:52:00,38.0,31.0,-100.00,WSW,240,35.0,47.0,75,0.00,,,-99.99,,2013-03-13 15:52:00,
2013-03-13 10:02:00,38.0,30.0,-100.00,West,260,34.0,43.0,74,0.00,,,-99.99,,2013-03-13 16:02:00,
2013-03-13 10:12:00,38.0,31.0,-100.00,WSW,245,35.0,41.0,73,0.00,,,-99.99,,2013-03-13 16:12:00,
2013-03-13 10:22:00,39.0,31.0,-100.00,WSW,255,31.0,43.0,73,0.00,,,-99.99,,2013-03-13 16:22:00,
2013-03-13 10:32:00,39.0,31.0,-100.00,WSW,255,32.0,42.0,73,0.00,,,-99.99,,2013-03-13 16:32:00,
2013-03-13 10:42:00,39.0,31.0,-100.00,WSW,240,39.0,45.0,71,0.00,,,-99.99,,2013-03-13 16:42:00,
2013-03-13 10:52:00,39.0,31.0,-100.00,WSW,245,36.0,45.0,70,0.00,,,-99.99,,2013-03-13 16:52:00,
2013-03-13 11:02:00,39.0,31.0,-100.00,WSW,255,34.0,45.0,71,0.00,,,-99.99,,2013-03-13 17:02:00,
2013-03-13 11:12:00,40.0,31.0,-100.00,West,260,33.0,43.0,71,0.00,,,-99.99,,2013-03-13 17:12:00,
2013-03-13 11:22:00,39.0,31.0,-100.00,West,265,37.0,46.0,71,0.00,,,-99.99,,2013-03-13 17:22:00,
2013-03-13 11:32:00,40.0,31.0,-100.00,WSW,250,33.0,45.0,70,0.00,,,-99.99,,2013-03-13 17:32:00,
2013-03-13 11:42:00,40.0,31.0,-100.00,WSW,250,34.0,43.0,69,0.00,,,-99.99,,2013-03-13 17:42:00,
2013-03-13 11:53:00,40.0,31.0,-100.00,West,260,34.0,44.0,68,0.00,,,-99.99,,2013-03-13 17:53:00,
2013-03-13 12:02:00,40.0,30.0,-100.00,West,260,37.0,46.0,66,0.00,,,-99.99,,2013-03-13 18:02:00,
2013-03-13 12:12:00,40.0,30.0,-100.00,WSW,245,36.0,49.0,64,0.00,,,-99.99,,2013-03-13 18:12:00,
2013-03-13 12:22:00,41.0,29.0,-100.00,West,260,33.0,42.0,62,0.00,,,-99.99,,2013-03-13 18:22:00,
2013-03-13 12:33:00,42.0,29.0,-100.00,WSW,255,33.0,44.0,60,0.00,,,-99.99,,2013-03-13 18:33:00,
2013-03-13 12:42:00,42.0,30.0,-100.00,WSW,255,27.0,38.0,62,0.00,,,-99.99,,2013-03-13 18:42:00,
2013-03-13 12:52:00,42.0,29.0,-100.00,WSW,245,30.0,40.0,59,0.00,,,-99.99,,2013-03-13 18:52:00,
2013-03-13 13:02:00,42.0,30.0,-100.00,West,260,28.0,40.0,61,0.00,,,-99.99,,2013-03-13 19:02:00,
2013-03-13 13:12:00,43.0,30.0,-100.00,West,265,27.0,35.0,60,0.00,,,-99.99,,2013-03-13 19:12:00,
2013-03-13 13:22:00,44.0,30.0,-100.00,West,265,19.0,31.0,58,0.00,,,-99.99,,2013-03-13 19:22:00,
2013-03-13 13:32:00,44.0,30.0,-100.00,WSW,255,22.0,30.0,57,0.00,,,-99.99,,2013-03-13 19:32:00,
2013-03-13 13:43:00,43.0,30.0,-100.00,West,260,28.0,35.0,58,0.00,,,-99.99,,2013-03-13 19:43:00,
2013-03-13 13:52:00,43.0,29.0,-100.00,West,265,28.0,43.0,56,0.00,,,-99.99,,2013-03-13 19:52:00,
2013-03-13 14:02:00,43.0,29.0,-100.00,WSW,255,30.0,43.0,56,0.00,,,-99.99,,2013-03-13 20:02:00,
2013-03-13 14:12:00,43.0,29.0,-100.00,WSW,245,36.0,47.0,57,0.00,,,-99.99,,2013-03-13 20:12:00,
2013-03-13 14:22:00,43.0,30.0,-100.00,SW,235,30.0,41.0,59,0.00,,,-99.99,,2013-03-13 20:22:00,
2013-03-13 14:32:00,43.0,30.0,-100.00,SW,235,29.0,46.0,60,0.00,,,-99.99,,2013-03-13 20:32:00,
2013-03-13 14:42:00,43.0,31.0,-100.00,WSW,250,32.0,40.0,61,0.00,,,-99.99,,2013-03-13 20:42:00,
2013-03-13 14:52:00,42.0,31.0,-100.00,WSW,255,37.0,49.0,62,0.00,,,-99.99,,2013-03-13 20:52:00,
2013-03-13 15:02:00,42.0,31.0,-100.00,WSW,245,32.0,47.0,64,0.00,,,-99.99,,2013-03-13 21:02:00,
2013-03-13 15:12:00,42.0,31.0,-100.00,WSW,250,29.0,44.0,65,0.00,,,-99.99,,2013-03-13 21:12:00,
2013-03-13 15:22:00,43.0,32.0,-100.00,WSW,245,29.0,39.0,64,0.00,,,-99.99,,2013-03-13 21:22:00,
2013-03-13 15:33:00,44.0,32.0,-100.00,WSW,255,29.0,42.0,63,0.00,,,-99.99,,2013-03-13 21:33:00,
2013-03-13 15:42:00,44.0,31.0,-100.00,WSW,250,32.0,40.0,61,0.00,,,-99.99,,2013-03-13 21:42:00,
2013-03-13 15:51:00,44.0,32.0,-100.00,WSW,240,32.0,44.0,62,0.00,,,-99.99,,2013-03-13 21:51:00,
2013-03-13 16:02:00,44.0,33.0,-100.00,WSW,255,32.0,42.0,64,0.00,,,-99.99,,2013-03-13 22:02:00,
2013-03-13 16:12:00,44.0,33.0,-100.00,WSW,245,35.0,42.0,63,0.00,,,-99.99,,2013-03-13 22:12:00,
2013-03-13 16:22:00,45.0,33.0,-100.00,West,265,32.0,41.0,62,0.00,,,-99.99,,2013-03-13 22:22:00,
2013-03-13 16:32:00,44.0,32.0,-100.00,West,260,32.0,43.0,61,0.00,,,-99.99,,2013-03-13 22:32:00,
2013-03-13 16:42:00,44.0,33.0,-100.00,West,265,23.0,32.0,63,0.00,,,-99.99,,2013-03-13 22:42:00,
2013-03-13 16:52:00,44.0,32.0,-100.00,WSW,250,32.0,38.0,62,0.00,,,-99.99,,2013-03-13 22:52:00,
2013-03-13 17:02:00,44.0,32.0,-100.00,WSW,240,27.0,37.0,60,0.00,,,-99.99,,2013-03-13 23:02:00,
2013-03-13 17:12:00,44.0,31.0,-100.00,WSW,250,25.0,37.0,59,0.00,,,-99.99,,2013-03-13 23:12:00,
2013-03-13 17:22:00,44.0,31.0,-100.00,WSW,250,21.0,28.0,58,0.00,,,-99.99,,2013-03-13 23:22:00,
2013-03-13 17:32:00,45.0,31.0,-100.00,WSW,250,22.0,31.0,58,0.00,,,-99.99,,2013-03-13 23:32:00,
2013-03-13 17:42:00,45.0,32.0,-100.00,WSW,255,22.0,32.0,59,0.00,,,-99.99,,2013-03-13 23:42:00,
2013-03-13 17:52:00,45.0,31.0,-100.00,WSW,255,29.0,37.0,59,0.00,,,-99.99,,2013-03-13 23:52:00,
2013-03-13 18:02:00,44.0,31.0,-100.00,WSW,250,27.0,35.0,59,0.00,,,-99.99,,2013-03-14 00:02:00,
2013-03-13 18:12:00,44.0,31.0,-100.00,WSW,245,25.0,32.0,60,0.00,,,-99.99,,2013-03-14 00:12:00,
2013-03-13 18:22:00,44.0,31.0,-100.00,WSW,255,27.0,35.0,60,0.00,,,-99.99,,2013-03-14 00:22:00,
2013-03-13 18:32:00,44.0,31.0,-100.00,WSW,250,28.0,37.0,60,0.00,,,-99.99,,2013-03-14 00:32:00,
2013-03-13 18:42:00,44.0,31.0,-100.00,WSW,255,24.0,32.0,62,0.00,,,-99.99,,2013-03-14 00:42:00,
2013-03-13 18:52:00,43.0,31.0,-100.00,WSW,245,27.0,33.0,62,0.00,,,-99.99,,2013-03-14 00:52:00,
2013-03-13 19:02:00,43.0,31.0,-100.00,WSW,250,24.0,32.0,64,0.00,,,-99.99,,2013-03-14 01:02:00,
2013-03-13 19:12:00,43.0,31.0,-100.00,WSW,250,26.0,34.0,63,0.00,,,-99.99,,2013-03-14 01:12:00,
2013-03-13 19:22:00,42.0,31.0,-100.00,WSW,255,24.0,32.0,64,0.00,,,-99.99,,2013-03-14 01:22:00,
2013-03-13 19:32:00,42.0,32.0,-100.00,WSW,250,24.0,29.0,65,0.00,,,-99.99,,2013-03-14 01:32:00,
2013-03-13 19:42:00,42.0,31.0,-100.00,WSW,250,24.0,32.0,66,0.00,,,-99.99,,2013-03-14 01:42:00,
2013-03-13 19:52:00,42.0,31.0,-100.00,WSW,255,25.0,31.0,65,0.00,,,-99.99,,2013-03-14 01:52:00,
2013-03-13 20:02:00,42.0,31.0,-100.00,WSW,255,26.0,31.0,65,0.00,,,-99.99,,2013-03-14 02:02:00,
2013-03-13 20:12:00,42.0,31.0,-100.00,WSW,250,27.0,36.0,64,0.00,,,-99.99,,2013-03-14 02:12:00,
2013-03-13 20:22:00,43.0,31.0,-100.00,WSW,250,29.0,36.0,62,0.00,,,-99.99,,2013-03-14 02:22:00,
2013-03-13 20:32:00,42.0,30.0,-100.00,WSW,255,30.0,37.0,62,0.00,,,-99.99,,2013-03-14 02:32:00,
2013-03-13 20:42:00,42.0,30.0,-100.00,WSW,255,30.0,37.0,62,0.00,,,-99.99,,2013-03-14 02:42:00,
2013-03-13 20:51:00,42.0,30.0,-100.00,WSW,255,30.0,37.0,62,0.00,,,-99.99,,2013-03-14 02:51:00,
2013-03-13 21:02:00,42.0,30.0,-100.00,WSW,255,28.0,34.0,62,0.00,,,-99.99,,2013-03-14 03:02:00,
2013-03-13 21:12:00,42.0,30.0,-100.00,WSW,250,29.0,35.0,62,0.00,,,-99.99,,2013-03-14 03:12:00,
2013-03-13 21:22:00,42.0,30.0,-100.00,WSW,245,30.0,39.0,62,0.00,,,-99.99,,2013-03-14 03:22:00,
2013-03-13 21:32:00,42.0,30.0,-100.00,WSW,245,30.0,37.0,60,0.00,,,-99.99,,2013-03-14 03:32:00,
2013-03-13 21:52:00,42.0,30.0,-100.00,WSW,245,27.0,32.0,61,0.00,,,-99.99,,2013-03-14 03:52:00,
2013-03-13 22:12:00,42.0,30.0,-100.00,WSW,250,29.0,35.0,60,0.00,,,-99.99,,2013-03-14 04:12:00,
2013-03-13 22:22:00,42.0,29.0,-100.00,WSW,245,28.0,39.0,60,0.00,,,-99.99,,2013-03-14 04:22:00,
2013-03-13 22:32:00,42.0,29.0,-100.00,WSW,245,32.0,37.0,60,0.00,,,-99.99,,2013-03-14 04:32:00,
2013-03-13 22:42:00,42.0,29.0,-100.00,WSW,245,28.0,40.0,60,0.00,,,-99.99,,2013-03-14 04:42:00,
2013-03-13 22:52:00,42.0,29.0,-100.00,WSW,245,30.0,38.0,60,0.00,,,-99.99,,2013-03-14 04:52:00,
2013-03-13 23:02:00,42.0,29.0,-100.00,WSW,245,27.0,37.0,61,0.00,,,-99.99,,2013-03-14 05:02:00,
2013-03-13 23:12:00,42.0,29.0,-100.00,WSW,240,29.0,38.0,61,0.00,,,-99.99,,2013-03-14 05:12:00,
2013-03-13 23:22:00,41.0,29.0,-100.00,WSW,240,29.0,38.0,62,0.00,,,-99.99,,2013-03-14 05:22:00,
2013-03-13 23:33:00,41.0,29.0,-100.00,WSW,245,29.0,37.0,62,0.00,,,-99.99,,2013-03-14 05:33:00,
2013-03-13 23:42:00,41.0,29.0,-100.00,WSW,245,30.0,38.0,62,0.00,,,-99.99,,2013-03-14 05:42:00,
2013-03-13 23:52:00,41.0,29.0,-100.00,WSW,245,29.0,37.0,62,0.00,,,-99.99,,2013-03-14 05:52:00,